Japanese version Home page |
Updated on December 18, 2022 |
|
Orbital ElementsEpoch 2022 Jan. 21.0 TT = JDT 2459600.5 T 2022 Feb. 15.52230 TT Rudenko q 2.5702121 (2000.0) P Q n 0.09491913 Peri. 229.96260 +0.58986306 -0.80720576 a 4.7595608 Node 184.07797 +0.80239613 +0.58896443 e 0.4599896 Incl. 17.95207 +0.09067541 +0.03923970 P 10.4 From 317 observations 2011 Aug. 31-2022 Jan. 28, mean residual 0".7. Nongravitational parameters A1 = -0.90, A2 = +0.1963.
|
Magnitudes Graphm1 = 8.7 + 5 log d + 20 log r
|
The orbital elements are published on M.P.E.C. 2022-C56.
|